Location: Grand Rapids
(42.9630°N, 85.6680°W)
Time: 03:20:57
(UTC-04:00)

S-56A Canister/Altair - Pass Details

Date: 08 June 2024
Orbit: 637 x 2489 km, 38.9° (Epoch: 22 June)

Event Time Altitude Azimuth Distance (km) Brightness Sun altitude
Rises 07:40:02 0° 282° (WNW) 6,166 11.6 15.1°
Reaches altitude 10° 07:44:15 10° 279° (W) 5,127 11.2 15.8°
Maximum altitude 07:58:14 54° 209° (SSW) 2,516 10.1 18.3°
Drops below altitude 10° 08:08:52 10° 136° (SE) 3,967 11.7 20.2°
Sets 08:11:43 0° 131° (SE) 4,724 12.1 20.7°
